Travis Air Force Base, CA

4:58 PM PDT on September 28, 2016 (GMT -0700)
Travis Air Force Base

Weather History for KSUU - October, 2012

Change the Weather History Date:

Saturday, October 6, 2012

  Actual Average Record
Temperature  
Mean Temperature 62 °F -  
Max Temperature 75 °F 79 °F 96 °F (2014)
Min Temperature 50 °F 52 °F 41 °F (2007)
Degree Days  
Heating Degree Days 2    
Growing Degree Days 12 (Base 50)    
Moisture  
Dew Point 50 °F    
Average Humidity 69    
Maximum Humidity 92    
Minimum Humidity 39    
Precipitation  
Precipitation 0.00 in - - ()
Sea Level Pressure  
Sea Level Pressure 29.99 in    
Wind  
Wind Speed 12 mph (WSW)    
Max Wind Speed 18 mph    
Max Gust Speed 20 mph    
Visibility 10 miles    
Events      
Averages and records for this station are not official NWS values.
T = Trace of Precipitation, MM = Missing Value Source: NWS Daily Summary

Daily Weather History Graph

Daily Weather History Graph

Search for Another Location

Airport or City:

Trip Planner

Search our weather history database for the weather conditions in past years. The results will help you decide how hot, cold, wet, or windy it might be!

Date:

Astronomy

Oct. 06, 2012 Rise Set
Actual Time 7:08 AM PDT 6:42 PM PDT
Civil Twilight 6:42 AM PDT 7:08 PM PDT
Nautical Twilight 6:11 AM PDT 7:39 PM PDT
Astronomical Twilight 5:40 AM PDT 8:09 PM PDT
Moon 11:06 PM PDT (10/6) 1:03 PM PDT (10/6)
Length of Visible Light 12h 26m
Length of Day
11h 33m
Waning Gibbous, 64% of the Moon is Illuminated
Oct 6
Waning Gibbous
Oct 8
Last Quarter
Oct 15
New
Oct 21
First Quarter
Oct 29
Full

Hourly Weather History & Observations

Time (PDT) Temp. Dew Point Humidity Pressure Visibility Wind Dir Wind Speed Gust Speed Precip Events Conditions
12:55 AM 56.1 °F 52.0 °F 86% 30.03 in 10.0 mi SW 11.5 mph - N/A   Clear
1:55 AM 55.4 °F 51.8 °F 88% 30.04 in 10.0 mi SW 11.5 mph - N/A   Clear
2:55 AM 55.0 °F 51.6 °F 88% 30.04 in 10.0 mi SW 12.7 mph - N/A   Clear
3:55 AM 54.3 °F 50.9 °F 88% 30.02 in 10.0 mi SW 12.7 mph - N/A   Clear
4:55 AM 53.4 °F 50.5 °F 90% 30.02 in 10.0 mi WSW 9.2 mph - N/A   Clear
5:55 AM 50.7 °F 48.6 °F 92% 30.04 in 10.0 mi West 8.1 mph - N/A   Clear
6:55 AM 51.3 °F 48.4 °F 90% 30.04 in 10.0 mi WSW 4.6 mph - N/A   Clear
7:55 AM 53.1 °F 50.5 °F 91% 30.05 in 10.0 mi SW 8.1 mph - N/A   Clear
8:55 AM 59.2 °F 52.2 °F 78% 30.04 in 10.0 mi SW 10.4 mph - N/A   Clear
9:55 AM 63.7 °F 50.5 °F 62% 30.05 in 10.0 mi WSW 16.1 mph - N/A   Clear
10:55 AM 65.8 °F 50.7 °F 58% 30.04 in 10.0 mi West 9.2 mph - N/A   Clear
11:55 AM 68.9 °F 50.5 °F 52% 30.04 in 10.0 mi West 11.5 mph - N/A   Clear
12:55 PM 70.9 °F 50.4 °F 48% 30.02 in 10.0 mi WSW 13.8 mph 19.6 mph N/A   Clear
1:55 PM 74.3 °F 48.6 °F 40% 29.99 in 10.0 mi West 15.0 mph - N/A   Clear
2:55 PM 75.0 °F 48.7 °F 39% 29.97 in 10.0 mi West 12.7 mph - N/A   Clear
3:55 PM 74.7 °F 48.4 °F 39% 29.95 in 10.0 mi WSW 13.8 mph - N/A   Clear
4:55 PM 73.4 °F 47.3 °F 39% 29.94 in 10.0 mi WSW 15.0 mph - N/A   Clear
5:55 PM 71.1 °F 47.7 °F 43% 29.93 in 10.0 mi WSW 16.1 mph - N/A   Clear
6:55 PM 67.1 °F 48.7 °F 52% 29.93 in 10.0 mi WSW 18.4 mph - N/A   Clear
7:55 PM 63.0 °F 48.9 °F 60% 29.94 in 10.0 mi WSW 16.1 mph - N/A   Clear
8:55 PM 59.0 °F 50.9 °F 74% 29.94 in 10.0 mi SW 12.7 mph - N/A   Clear
9:55 PM 57.6 °F 52.0 °F 82% 29.94 in 10.0 mi SW 12.7 mph - N/A   Clear
10:55 PM 56.5 °F 52.3 °F 86% 29.94 in 10.0 mi SW 13.8 mph - N/A   Clear
11:55 PM 55.8 °F 52.7 °F 89% 29.94 in 10.0 mi SW 16.1 mph - N/A   Clear